TimeEDT,TemperatureF,Dew PointF,Humidity,Sea Level PressureIn,VisibilityMPH,Wind Direction,Wind SpeedMPH,Gust SpeedMPH,PrecipitationIn,Events,Conditions,WindDirDegrees,DateUTC
12:15 AM,59.4,58.1,96,30.06,10.0,SW,3.5,-,N/A,,Clear,220,2013-10-02 04:15:00
12:35 AM,58.6,58.1,98,30.06,10.0,Calm,Calm,-,N/A,,Clear,0,2013-10-02 04:35:00
12:55 AM,57.2,56.7,98,30.06,10.0,South,3.5,-,N/A,,Clear,190,2013-10-02 04:55:00
1:15 AM,56.5,56.3,99,30.06,7.0,SSW,3.5,-,N/A,,Clear,210,2013-10-02 05:15:00
1:35 AM,55.9,55.9,100,30.07,5.0,SW,4.6,-,N/A,,Clear,220,2013-10-02 05:35:00
1:55 AM,56.3,56.3,100,30.07,3.0,SW,4.6,-,N/A,,Clear,220,2013-10-02 05:55:00
2:15 AM,56.3,56.3,100,30.07,4.0,SW,3.5,-,N/A,,Clear,220,2013-10-02 06:15:00
2:35 AM,57.2,57.2,100,30.08,5.0,SW,4.6,-,N/A,,Clear,220,2013-10-02 06:35:00
2:55 AM,56.5,56.5,100,30.08,4.0,SW,3.5,-,N/A,,Clear,230,2013-10-02 06:55:00
3:15 AM,57.6,57.6,100,30.07,4.0,SW,3.5,-,N/A,,Clear,220,2013-10-02 07:15:00
3:35 AM,57.2,57.2,100,30.07,3.0,SSW,3.5,-,N/A,,Clear,200,2013-10-02 07:35:00
3:55 AM,56.3,56.3,100,30.07,3.0,Calm,Calm,-,N/A,,Mostly Cloudy,0,2013-10-02 07:55:00
4:15 AM,57.7,57.7,100,30.07,4.0,SW,3.5,-,N/A,,Overcast,220,2013-10-02 08:15:00
4:35 AM,58.8,58.8,100,30.07,4.0,South,3.5,-,N/A,,Overcast,180,2013-10-02 08:35:00
4:55 AM,59.5,59.5,100,30.08,4.0,Calm,Calm,-,N/A,,Overcast,0,2013-10-02 08:55:00
5:15 AM,59.9,59.4,98,30.08,5.0,Calm,Calm,-,N/A,,Mostly Cloudy,0,2013-10-02 09:15:00
5:35 AM,59.4,59.2,99,30.08,4.0,Calm,Calm,-,N/A,,Mostly Cloudy,0,2013-10-02 09:35:00
5:55 AM,58.6,58.6,100,30.09,3.0,Calm,Calm,-,N/A,,Scattered Clouds,0,2013-10-02 09:55:00
6:15 AM,58.1,58.1,100,30.09,3.0,Calm,Calm,-,N/A,,Mostly Cloudy,0,2013-10-02 10:15:00
6:35 AM,58.5,58.5,100,30.09,4.0,SW,3.5,-,N/A,,Mostly Cloudy,220,2013-10-02 10:35:00
6:55 AM,58.3,58.3,100,30.09,4.0,SSW,3.5,-,N/A,,Mostly Cloudy,210,2013-10-02 10:55:00
7:15 AM,58.3,58.1,99,30.10,5.0,SW,4.6,-,N/A,,Overcast,220,2013-10-02 11:15:00
7:20 AM,59.0,57.2,94,30.10,5.0,SW,4.6,-,N/A,,Mostly Cloudy,230,2013-10-02 11:20:00
9:50 AM,66.2,64.4,94,30.13,5.0,SW,4.6,-,N/A,,Mostly Cloudy,230,2013-10-02 13:50:00
11:50 AM,73.4,66.2,78,30.13,7.0,WNW,4.6,-,N/A,,Scattered Clouds,300,2013-10-02 15:50:00
12:50 PM,73.4,66.2,78,30.12,7.0,NW,3.5,-,N/A,,Mostly Cloudy,310,2013-10-02 16:50:00
1:50 PM,77.0,66.2,69,30.10,7.0,SW,3.5,-,N/A,,Scattered Clouds,230,2013-10-02 17:50:00
2:50 PM,80.6,66.2,61,30.08,10.0,SW,4.6,-,N/A,,Mostly Cloudy,220,2013-10-02 18:50:00
3:47 PM,80.6,66.2,61,30.07,10.0,WSW,3.5,-,N/A,,Mostly Cloudy,250,2013-10-02 19:47:00
4:47 PM,82.4,64.4,54,30.06,10.0,SSW,3.5,-,N/A,,Mostly Cloudy,210,2013-10-02 20:47:00
5:47 PM,80.6,64.4,58,30.05,10.0,West,6.9,-,N/A,,Scattered Clouds,260,2013-10-02 21:47:00
6:47 PM,75.2,64.4,69,30.06,10.0,Calm,Calm,-,N/A,,Clear,0,2013-10-02 22:47:00
7:35 PM,70.0,64.4,82,30.06,10.0,Calm,Calm,-,N/A,,Clear,0,2013-10-02 23:35:00
7:55 PM,67.8,63.9,87,30.06,10.0,Calm,Calm,-,N/A,,Clear,0,2013-10-02 23:55:00
8:15 PM,67.5,63.5,87,30.06,10.0,Calm,Calm,-,N/A,,Clear,0,2013-10-03 00:15:00
8:35 PM,67.6,63.7,87,30.07,10.0,Calm,Calm,-,N/A,,Clear,0,2013-10-03 00:35:00
8:55 PM,66.6,63.5,90,30.07,10.0,SSE,6.9,-,N/A,,Clear,160,2013-10-03 00:55:00
9:15 PM,67.8,63.7,87,30.07,10.0,Calm,Calm,-,N/A,,Scattered Clouds,0,2013-10-03 01:15:00
9:35 PM,67.3,63.5,88,30.07,10.0,Calm,Calm,-,N/A,,Mostly Cloudy,0,2013-10-03 01:35:00
9:55 PM,65.7,63.5,93,30.08,10.0,WSW,3.5,-,N/A,,Scattered Clouds,240,2013-10-03 01:55:00
10:15 PM,66.7,63.7,90,30.08,10.0,WSW,4.6,-,N/A,,Mostly Cloudy,240,2013-10-03 02:15:00
10:35 PM,68.0,64.2,88,30.08,10.0,WSW,3.5,-,N/A,,Scattered Clouds,250,2013-10-03 02:35:00
10:55 PM,67.1,63.7,89,30.08,10.0,West,3.5,-,N/A,,Clear,270,2013-10-03 02:55:00
11:15 PM,66.2,63.7,92,30.08,7.0,Calm,Calm,-,N/A,,Clear,0,2013-10-03 03:15:00
11:35 PM,66.2,63.9,92,30.08,10.0,Calm,Calm,-,N/A,,Clear,0,2013-10-03 03:35:00
11:55 PM,64.8,63.0,94,30.08,7.0,Calm,Calm,-,N/A,,Clear,0,2013-10-03 03:55:00